Meteopurmerend
purmerend
Purmerend - Baaienwijk



My webcam  My webcam


Onweer radar Meer informatie blitzortung!


Regen radar Meer informatie rain snow radar


Bezoek onze andere website:

CandyAppleRed WebdesignWebdesign Purmerend Candy Apple Red

MeteopurmerendBlog

Template documentation
and downloads



Het weer levert geen direct gevaar op.    Er zijn geen waarschuwingen afgegeven.

15 daagse weersverwachting Bochum (DE)

  • Overzicht
  • Per uur
  • 15 dagen
  • Extra
  • Vergelijk
  • Kaarten
  • Dagkaart
  • Meer »
  • Info
  • Statistieken
  • Directe link
    Temp 6h Neerslag Wind  
 07:26     17:04    Daglengte: 9:38 Vandaag
13:00
15°
 
5
19:00
14°
 
7
 07:28     17:03    Daglengte: 9:35 Morgen
01:00
14°
1.1 mm
4
07:00
12°
0.7 mm
3
13:00
15°
1.1 mm
7
19:00
16°
3.0 mm
8
 07:29     17:01    Daglengte: 9:32 Maandag 02 Nov
01:00
16°
4.0 mm
7
07:00
17°
2.0 mm
8
13:00
18°
 
9
19:00
14°
 
7
 07:31     16:59    Daglengte: 9:28 Dinsdag 03 Nov
01:00
11°
1.7 mm
6
07:00
 
5
Locatie info
Region: Nordrhein-Westfalen
Latitude: 51.4864°N
Longitude: 7.2108°E
102 masl
Postcode: 44787
Temp/Neerslag /Baro Onweer/Dauwpunt
    Temp Baro 1h Neerslag Dauwpunt Wind UV Bewolking  
 07:26     17:04    Daglengte: 9:38 Vandaag
12:00
15°
1019.8 hPa   10.1°
5
Windvlaag: 4.7 m/s
8%
13:00
15°
1018.6 hPa   9.6°
5
Windvlaag: 5.2 m/s
0%
14:00
16°
1017.3 hPa   9.6°
5
Windvlaag: 5 m/s
0%
15:00
16°
1016.4 hPa   9.3°
5
Windvlaag: 5.2 m/s
8%
16:00
15°
1015.4 hPa   9.3°
5
Windvlaag: 5.2 m/s
29%
17:00
14°
1015.1 hPa   8.7°
5
Windvlaag: 6.1 m/s
53%
18:00
14°
1014.4 hPa   8.2°
6
Windvlaag: 6.5 m/s
63%
19:00
14°
1014.1 hPa   7.9°
7
Windvlaag: 6.8 m/s
62%
20:00
14°
1014.2 hPa
17%
8.0°
7
Windvlaag: 6.5 m/s
89%
21:00
14°
1014.5 hPa 0.5 mm
82%
8.8°
6
Windvlaag: 6.2 m/s
89%
22:00
14°
1014.6 hPa 0.6 mm
82%
9.7°
6
Windvlaag: 5.4 m/s
85%
23:00
14°
1014.7 hPa
70%
10.5°
5
Windvlaag: 5.2 m/s
90%
 07:28     17:03    Daglengte: 9:35 Morgen
00:00
14°
1014.7 hPa
79%
11.0°
5
Windvlaag: 4.5 m/s
91%
01:00
14°
1014.9 hPa
81%
11.3°
4
Windvlaag: 3.8 m/s
91%
02:00
13°
1014.9 hPa
71%
11.2°
4
Windvlaag: 3.6 m/s
91%
03:00
13°
1014.9 hPa
69%
10.5°
4
Windvlaag: 3.6 m/s
90%
04:00
13°
1014.7 hPa
69%
10.0°
4
Windvlaag: 3.8 m/s
91%
05:00
12°
1014.8 hPa 0.2 mm
82%
10.1°
4
Windvlaag: 4 m/s
91%
06:00
12°
1014.5 hPa 0.3 mm
65%
9.9°
4
Windvlaag: 4.1 m/s
91%
07:00
12°
1013.5 hPa 0.3 mm
23%
9.7°
3
Windvlaag: 3.5 m/s
86%
08:00
12°
1013.1 hPa
26%
9.5°
5
Windvlaag: 3.2 m/s
88%
09:00
13°
1012.6 hPa
29%
9.9°
5
Windvlaag: 3.4 m/s
90%
10:00
14°
1011.7 hPa
63%
10.4°
5
Windvlaag: 4.5 m/s
88%
11:00
14°
1010.9 hPa
82%
11.1°
7
Windvlaag: 4.7 m/s
84%
12:00
15°
1010.4 hPa 0.6 mm
23%
11.9°
7
Windvlaag: 5.6 m/s
81%
13:00
15°
1009.6 hPa 0.5 mm
82%
12.4°
7
Windvlaag: 6.1 m/s
90%
14:00
15°
1009.0 hPa 0.6 mm
82%
12.7°
8
Windvlaag: 7.2 m/s
90%
15:00
16°
1008.8 hPa 0.5 mm
82%
13.0°
8
Windvlaag: 7.1 m/s
90%
16:00
16°
1008.9 hPa 0.6 mm
82%
13.1°
8
Windvlaag: 6.8 m/s
89%
17:00
16°
1008.9 hPa 0.5 mm
82%
13.2°
8
Windvlaag: 6 m/s
86%
18:00
16°
1009.0 hPa
39%
13.2°
8
Windvlaag: 6 m/s
84%
19:00
16°
1009.1 hPa 0.7 mm
82%
13.3°
8
Windvlaag: 5.8 m/s
84%
20:00
16°
1009.3 hPa 0.9 mm
82%
13.2°
7
Windvlaag: 6 m/s
80%
21:00
16°
1009.1 hPa 0.8 mm
77%
13.2°
6
Windvlaag: 5.8 m/s
84%
22:00
16°
1009.0 hPa 0.5 mm
76%
13.7°
7
Windvlaag: 5.7 m/s
85%
23:00
16°
1008.7 hPa 0.8 mm
82%
13.8°
7
Windvlaag: 6.1 m/s
90%
 07:29     17:01    Daglengte: 9:32 Maandag 02 Nov
00:00
16°
1008.5 hPa
68%
14.0°
7
Windvlaag: 6.3 m/s
90%
01:00
16°
1008.1 hPa 0.9 mm
80%
14.5°
7
Windvlaag: 6.3 m/s
90%
02:00
17°
1007.9 hPa
73%
14.5°
8
Windvlaag: 6.2 m/s
90%
03:00
17°
1007.7 hPa
65%
14.4°
8
Windvlaag: 6.1 m/s
90%
04:00
17°
1007.4 hPa 0.6 mm
99%
14.4°
7
Windvlaag: 6.2 m/s
100%
05:00
17°
1007.3 hPa 0.8 mm
100%
14.2°
7
Windvlaag: 6.4 m/s
99%
06:00
17°
1007.4 hPa
100%
14.2°
8
Windvlaag: 6.2 m/s
100%
07:00
17°
1007.6 hPa 0.6 mm
84%
14.3°
8
Windvlaag: 6.4 m/s
100%
08:00
17°
1007.8 hPa
33%
14.0°
9
Windvlaag: 6.7 m/s
99%
09:00
17°
1008.0 hPa
30%
13.6°
8
Windvlaag: 7 m/s
95%
10:00
18°
1008.0 hPa
27%
13.3°
9
Windvlaag: 7.3 m/s
85%
11:00
18°
1008.1 hPa
32%
13.2°
8
Windvlaag: 7.2 m/s
86%
12:00
18°
1007.9 hPa
70%
13.0°
9
Windvlaag: 6.7 m/s
90%
13:00
18°
1007.7 hPa
23%
13.2°
9
Windvlaag: 6.8 m/s
92%
14:00
19°
1007.8 hPa
31%
13.3°
8
Windvlaag: 6.3 m/s
94%
15:00
19°
1007.9 hPa
30%
13.3°
8
Windvlaag: 5.9 m/s
89%
16:00
19°
1008.3 hPa
85%
13.2°
8
Windvlaag: 6 m/s
32%
17:00
17°
1009.0 hPa
22%
13.9°
9
Windvlaag: 6.6 m/s
71%
18:00
16°
1010.0 hPa
78%
10.6°
8
Windvlaag: 5.2 m/s
92%
19:00
14°
1012.0 hPa
35%
8.6°
7
Windvlaag: 1.2 m/s
80%
20:00
14°
1013.3 hPa 1.7 mm
100%
7.1°
7
Windvlaag: 2.3 m/s
86%
21:00
13°
1014.4 hPa
90%
6.2°
6
Windvlaag: 3.9 m/s
78%
22:00
12°
1015.4 hPa
100%
5.4°
6
Windvlaag: 5 m/s
63%
23:00
12°
1016.3 hPa
100%
5.4°
6
Windvlaag: 4.3 m/s
19%
 07:31     16:59    Daglengte: 9:28 Dinsdag 03 Nov
00:00
11°
1016.8 hPa
100%
5.3°
6
Windvlaag: 4.3 m/s
14%
01:00
11°
1017.3 hPa
100%
5.5°
6
Windvlaag: 4.5 m/s
17%
02:00
10°
1018.1 hPa
88%
5.5°
6
Windvlaag: 14.8 m/s
19%
03:00
10°
Voelt als: 7.3°
1018.7 hPa
25%
5.4°
6
Windvlaag: 14.6 m/s
16%
04:00
10°
Voelt als: 7.0°
1019.1 hPa
22%
5.4°
5
Windvlaag: 14.5 m/s
29%
05:00
Voelt als: 6.6°
1019.8 hPa
21%
5.2°
5
Windvlaag: 15 m/s
18%
06:00
Voelt als: 6.2°
1020.3 hPa
21%
5.0°
5
Windvlaag: 15.8 m/s
13%
07:00
Voelt als: 5.8°
1020.9 hPa
21%
4.9°
5
Windvlaag: 2.2 m/s
13%
08:00
Voelt als: 6.0°
1021.0 hPa 3.3 mm
100%
4.6°
5
Windvlaag: 14.8 m/s
5%
09:00
Voelt als: 6.8°
1021.2 hPa 3.3 mm
100%
4.6°
6
Windvlaag: 16.7 m/s
7%
10:00
10°
1021.4 hPa 3.3 mm
100%
4.6°
6
Windvlaag: 17.2 m/s
9% warningclass
11:00
11°
1021.6 hPa 3.3 mm
100%
4.5°
6
Windvlaag: 16 m/s
11%
Temp/Neerslag /Baro Onweer/Dauwpunt
    Temp Baro Neerslag Dauwpunt Wind Bewolking  
 07:26     17:04    Daglengte: 9:38 Vandaag
13:00
15°
1018.6 hPa   9.6°
5
0%
16:00
15°
1015.4 hPa   9.3°
5
29%
19:00
14°
1014.1 hPa   7.9°
7
62%
22:00
14°
1014.6 hPa 1.1 mm 9.7°
6
85%
 07:28     17:03    Daglengte: 9:35 Morgen
01:00
14°
1014.9 hPa   11.3°
4
91%
04:00
13°
1014.7 hPa   10.0°
4
91%
07:00
12°
1013.5 hPa 0.7 mm 9.7°
3
86%
10:00
14°
1011.7 hPa   10.4°
5
88%
13:00
15°
1009.6 hPa 1.1 mm 12.4°
7
90%
16:00
16°
1008.9 hPa 1.7 mm 13.1°
8
89%
19:00
16°
1009.1 hPa 1.3 mm 13.3°
8
84%
22:00
16°
1009.0 hPa 2.2 mm 13.7°
7
85%
 07:29     17:01    Daglengte: 9:32 Maandag 02 Nov
01:00
16°
1008.1 hPa 1.7 mm 14.5°
7
90%
04:00
17°
1007.4 hPa 0.6 mm 14.4°
7
100%
07:00
17°
1007.6 hPa 1.4 mm 14.3°
8
100%
10:00
18°
1008.0 hPa   13.3°
9
85%
13:00
18°
1007.7 hPa   13.2°
9
92%
16:00
19°
1008.3 hPa   13.2°
8
32%
19:00
14°
1012.0 hPa   8.6°
7
80%
22:00
12°
1015.4 hPa 1.7 mm 5.4°
6
63%
 07:31     16:59    Daglengte: 9:28 Dinsdag 03 Nov
01:00
11°
1017.3 hPa   5.5°
6
17%
04:00
10°
Voelt als: 7.0°
1019.1 hPa   5.4°
5
29%
07:00
Voelt als: 5.8°
1020.9 hPa   4.9°
5
13%
10:00
10°
1021.4 hPa 9.9 mm 4.6°
6
9% warningclass
13:00
12°
1021.8 hPa 9.9 mm 4.0°
6
15%
16:00
10°
Voelt als: 7.3°
1023.2 hPa 9.7 mm 4.2°
6
12%
19:00
Voelt als: 5.8°
1023.8 hPa 9.8 mm 4.0°
5
9%
22:00
Voelt als: 4.3°
1024.9 hPa 9.8 mm 3.5°
5
5%
 07:33     16:57    Daglengte: 9:24 Woensdag 04 Nov
01:00
Voelt als: 2.7°
1025.9 hPa 9.8 mm 2.9°
5
2%
04:00
Voelt als: 2.2°
1026.5 hPa 9.8 mm 2.8°
5
11%
07:00
Voelt als: 1.7°
1027.2 hPa 9.8 mm 2.7°
4
21%
10:00
Voelt als: 4.5°
1028.7 hPa 9.8 mm 3.2°
4
40%
13:00
Voelt als: 7.4°
1030.2 hPa 9.8 mm 3.4°
4
59%
16:00
Voelt als: 6.1°
1031.5 hPa 9.8 mm 3.2°
3
46%
19:00
Voelt als: 4.7°
1032.9 hPa 9.8 mm 2.8°
2
33%
22:00
Voelt als: 3.3°
1034.2 hPa 9.8 mm 2.6°
2
16%
 07:35     16:56    Daglengte: 9:21 Donderdag 05 Nov
01:00
Voelt als: 2.0°
1035.4 hPa 9.8 mm 2.2°
2
0%
04:00
Voelt als: 1.3°
1036.3 hPa 9.8 mm 2.2°
2
1%
07:00
Voelt als: 0.7°
1037.1 hPa 9.8 mm 2.1°
2
3%
10:00
Voelt als: 4.2°
1037.6 hPa 9.8 mm 4.0°
3
8%
13:00
10°
Voelt als: 8.0°
1038.0 hPa 9.8 mm 5.7°
3
14%
16:00
Voelt als: 7.0°
1037.7 hPa 9.8 mm 5.1°
3
23%
19:00
Voelt als: 5.9°
1037.4 hPa 9.8 mm 4.5°
3
32%
22:00
Voelt als: 4.5°
1037.5 hPa 9.8 mm 4.4°
3
19%
 07:36     16:54    Daglengte: 9:18 Vrijdag 06 Nov
01:00
Voelt als: 3.2°
1037.5 hPa 9.8 mm 4.1°
3
6%
04:00
Voelt als: 3.2°
1037.1 hPa 9.8 mm 4.0°
3
24%
07:00
Voelt als: 3.3°
1036.8 hPa 9.8 mm 3.9°
2
42%
10:00
Voelt als: 6.8°
1036.5 hPa 9.8 mm 5.5°
2
67%
13:00
11°
1036.1 hPa 9.8 mm 7.0°
2
92%
16:00
10°
Voelt als: 9.5°
1035.4 hPa 9.8 mm 7.0°
1
53%
19:00
Voelt als: 8.5°
1034.7 hPa 9.8 mm 6.7°
1
14%
22:00
Voelt als: 6.8°
1033.9 hPa 9.8 mm 5.9°
1
16%
 07:38     16:52    Daglengte: 9:14 Zaterdag 07 Nov
01:00
Voelt als: 4.8°
1033.0 hPa 9.8 mm 5.1°
2
17%
04:00
Voelt als: 4.4°
1032.0 hPa 9.8 mm 4.8°
2
14%
07:00
Voelt als: 4.0°
1030.9 hPa 9.8 mm 4.5°
2
10%
10:00
Voelt als: 8.7°
1029.9 hPa   7.1°
2
44%
13:00
13°
1028.8 hPa 19.7 mm 9.5°
2
77%
19:00
Voelt als: 7.1°
1026.4 hPa 19.7 mm 7.4°
2
0%
 07:40     16:51    Daglengte: 9:11 Zondag 08 Nov
01:00
Voelt als: 6.7°
1025.2 hPa 19.7 mm 6.5°
2
0%
07:00
Voelt als: 4.6°
1023.4 hPa 19.7 mm 4.7°
3
0%
13:00
13°
1023.0 hPa 19.7 mm 8.3°
3
0%
19:00
Voelt als: 8.0°
1022.7 hPa 19.7 mm 7.8°
3
8%
 07:42     16:49    Daglengte: 9:07 Maandag 09 Nov
01:00
10°
Voelt als: 8.4°
1023.5 hPa 19.7 mm 8.8°
3
92%
07:00
11°
1023.2 hPa 19.7 mm 9.0°
3
92%
13:00
14°
1023.5 hPa 19.7 mm 11.2°
3
92%
19:00
12°
1022.3 hPa 19.7 mm 10.6°
2
90%
 07:43     16:48    Daglengte: 9:05 Dinsdag 10 Nov
01:00
Voelt als: 3.1°
1021.3 hPa 19.7 mm 2.4°
2
0%
07:00
Voelt als: 4.8°
1019.3 hPa   3.7°
1
47%
13:00
11°
1019.4 hPa 0.1 mm 5.1°
1
55%
19:00
Voelt als: 6.6°
1020.2 hPa 0.2 mm 4.7°
1
51%
 07:45     16:46    Daglengte: 9:01 Woensdag 11 Nov
01:00
Voelt als: 5.0°
1021.3 hPa   3.7°
1
38%
07:00
Voelt als: 4.3°
1021.5 hPa 0.3 mm 3.2°
1
42%
13:00
10°
1022.0 hPa 0.1 mm 4.3°
1
37%
19:00
Voelt als: 5.6°
1022.7 hPa 0.1 mm 3.9°
1
40%
 07:47     16:45    Daglengte: 8:58 Donderdag 12 Nov
01:00
Voelt als: 4.3°
1023.6 hPa 0.1 mm 3.1°
1
38%
07:00
Voelt als: 3.5°
1023.8 hPa   2.5°
2
41%
13:00
Voelt als: 8.8°
1023.7 hPa 0.1 mm 3.5°
2
46%
19:00
Voelt als: 4.8°
1024.0 hPa   3.3°
2
45%
 07:49     16:43    Daglengte: 8:54 Vrijdag 13 Nov
01:00
Voelt als: 3.8°
1024.3 hPa   2.4°
2
43%
07:00
Voelt als: 3.3°
1023.9 hPa 0.1 mm 1.9°
1
46%
13:00
Voelt als: 8.7°
1023.6 hPa 0.5 mm 3.0°
1
50%
19:00
Voelt als: 4.9°
1023.9 hPa 0.2 mm 2.6°
1
41%
 07:50     16:42    Daglengte: 8:52 Zaterdag 14 Nov
01:00
Voelt als: 3.3°
1024.4 hPa 0.1 mm 1.8°
1
35%
07:00
Voelt als: 2.8°
1024.0 hPa 0.2 mm 1.1°
1
44%
13:00
Voelt als: 8.1°
1023.5 hPa 0.1 mm 2.1°
1
47%
19:00
Voelt als: 4.1°
1022.8 hPa 0.1 mm 1.6°
1
48%
 07:52     16:41    Daglengte: 8:49 Zondag 15 Nov
01:00
Voelt als: 3.0°
1022.1 hPa 0.3 mm 1.0°
1
50%
07:00
Voelt als: 2.5°
1020.8 hPa 0.1 mm 0.5°
1
50%
  CAPE Lifted Index Hail Supercell Tornado SRH 3km CL BTM PRES CL TOP PRES Swiss DWD icon SMHI TS
 07:26     17:04    Daglengte: 9:38 Vandaag
12:00 0 J/kg 7.9 K 0 % 0 % 0 % 0 m²/s² 0 0 13.9 1
13:00 0 J/kg 7.5 K 0 % 0 % 0 % 0 m²/s² 0 0 14.04 1
14:00 0 J/kg 6.7 K 0 % 0 % 0 % 0 m²/s² 0 0 13.69 1
15:00 0 J/kg 6.6 K 0 % 0 % 0 % 0 m²/s² 0 0 13.8 0
16:00 0 J/kg 7.1 K 0 % 0 % 0 % 0 m²/s² 0 0 14.57 3
17:00 0 J/kg 7.0 K 0 % 0 % 0 % 0 m²/s² 0 0 15.04 3
18:00 0 J/kg 7.1 K 0 % 0 % 0 % 0 m²/s² 0 0 14.09 3
19:00 0 J/kg 6.4 K 0 % 0 % 0 % 0 m²/s² 0 0 11.14 3
20:00 0 J/kg 3.6 K 0 % 0 % 0 % 0 m²/s² 0 0 4.29 3
21:00 0 J/kg 2.9 K 0 % 0 % 0 % 0 m²/s² 0 0 3.17 61
22:00 0 J/kg 3.7 K 0 % 0 % 0 % 0 m²/s² 0 0 7.63 80
23:00 0 J/kg 5.2 K 0 % 0 % 0 % 0 m²/s² 0 0 15.04 3
 07:28     17:03    Daglengte: 9:35 Morgen
00:00 0 J/kg 6.4 K 0 % 0 % 0 % 0 m²/s² 0 0 15.79 3
01:00 0 J/kg 6.8 K 0 % 0 % 0 % 0 m²/s² 0 0 14.78 3
02:00 1 J/kg 6.9 K 0 % 0 % 0 % 0 m²/s² 0 0 13.26 3
03:00 0 J/kg 8.7 K 0 % 0 % 0 % 0 m²/s² 0 0 10.74 3
04:00 0 J/kg 9.7 K 0 % 0 % 0 % 0 m²/s² 0 0 10.24 3
05:00 0 J/kg 11.1 K 0 % 0 % 0 % 0 m²/s² 0 0 11.97 61
06:00 0 J/kg 12.5 K 0 % 0 % 0 % 0 m²/s² 0 0 12.68 3
07:00 49 J/kg 12.6 K 0 % 0 % 0 % 0 m²/s² 0 0 12.87 3
08:00 32 J/kg 12.3 K 0 % 0 % 0 % 0 m²/s² 0 0 12.51 3
09:00 0 J/kg 12.7 K 0 % 0 % 0 % 0 m²/s² 0 0 12.79 3
10:00 0 J/kg 13.7 K 0 % 0 % 0 % 0 m²/s² 0 0 13.73 3
11:00 0 J/kg 9.7 K 0 % 0 % 0 % 0 m²/s² 0 0 9.79 61
12:00 0 J/kg 6.9 K 0 % 0 % 0 % 0 m²/s² 0 0 7.02 3
13:00 0 J/kg 4.0 K 0 % 0 % 0 % 0 m²/s² 0 0 4.12 61
14:00 0 J/kg 3.4 K 0 % 0 % 0 % 0 m²/s² 0 0 4.33 61
15:00 0 J/kg 3.5 K 0 % 0 % 0 % 0 m²/s² 0 0 7.04 3
16:00 21 J/kg 3.4 K 0 % 0 % 0 % 0 m²/s² 0 0 7.57 80
17:00 34 J/kg 3.7 K 0 % 0 % 0 % 0 m²/s² 0 0 6.64 61
18:00 13 J/kg 5.4 K 0 % 0 % 0 % 0 m²/s² 0 0 7.38 3
19:00 12 J/kg 6.5 K 0 % 0 % 0 % 0 m²/s² 0 0 7.61 61
20:00 10 J/kg 7.8 K 0 % 0 % 0 % 0 m²/s² 0 0 8.58 61
21:00 0 J/kg 9.8 K 0 % 0 % 0 % 0 m²/s² 0 0 10.34 61
22:00 0 J/kg 10.0 K 0 % 0 % 0 % 0 m²/s² 0 0 10.45 80
23:00 0 J/kg 7.5 K 0 % 0 % 0 % 0 m²/s² 0 0 7.77 61
 07:29     17:01    Daglengte: 9:32 Maandag 02 Nov
00:00 0 J/kg 6.6 K 0 % 0 % 0 % 0 m²/s² 0 0 6.78 3
01:00 0 J/kg 4.2 K 0 % 0 % 0 % 0 m²/s² 0 0 4.29 61
02:00 0 J/kg 4.3 K 0 % 0 % 0 % 0 m²/s² 0 0 4.3 3
03:00 0 J/kg 4.3 K 0 % 0 % 0 % 0 m²/s² 0 0 4.3 3
04:00 0 J/kg 4.0 K 0 % 0 % 0 % 0 m²/s² 0 0 4 3
05:00 0 J/kg 3.1 K 0 % 0 % 0 % 0 m²/s² 0 0 3.76 61
06:00 0 J/kg 2.3 K 0 % 0 % 0 % 0 m²/s² 0 0 2.42 3
07:00 0 J/kg 2.6 K 0 % 0 % 0 % 0 m²/s² 0 0 4.22 3
08:00 7 J/kg 3.5 K 0 % 0 % 0 % 0 m²/s² 0 0 9.05 3
09:00 22 J/kg 6.0 K 0 % 0 % 0 % 0 m²/s² 0 0 12.54 3
10:00 17 J/kg 7.3 K 0 % 0 % 0 % 0 m²/s² 0 0 13.87 3
11:00 7 J/kg 7.9 K 0 % 0 % 0 % 0 m²/s² 0 0 14.5 3
12:00 8 J/kg 7.3 K 0 % 0 % 0 % 0 m²/s² 0 0 14.29 3
13:00 14 J/kg 6.6 K 0 % 0 % 0 % 0 m²/s² 0 0 14.31 3
14:00 32 J/kg 5.8 K 0 % 0 % 0 % 0 m²/s² 0 0 13.48 3
15:00 26 J/kg 4.9 K 0 % 0 % 0 % 0 m²/s² 0 0 10.75 3
16:00 20 J/kg 4.7 K 0 % 0 % 0 % 0 m²/s² 0 0 9.17 2
17:00 0 J/kg 4.2 K 0 % 0 % 0 % 0 m²/s² 0 0 6.6 3
18:00 0 J/kg 4.0 K 0 % 0 % 0 % 0 m²/s² 0 0 4.96 3
19:00 6 J/kg 6.6 K 0 % 0 % 0 % 0 m²/s² 0 0 7.29 2
20:00 9 J/kg 10.0 K 0 % 0 % 0 % 0 m²/s² 0 0 10.42 63
21:00 14 J/kg 14.0 K 0 % 0 % 0 % 0 m²/s² 0 0 17.54 3
22:00 12 J/kg 14.8 K 0 % 0 % 0 % 0 m²/s² 0 0 23.38 61
23:00 20 J/kg 14.9 K 0 % 0 % 0 % 0 m²/s² 0 0 26.18 61
 07:31     16:59    Daglengte: 9:28 Dinsdag 03 Nov
00:00 6 J/kg 15.4 K 0 % 0 % 0 % 0 m²/s² 0 0 26.02 3
01:00 0 J/kg 15.6 K 0 % 0 % 0 % 0 m²/s² 0 0 25.17 3
02:00 0 J/kg 15.4 K 0 % 0 % 0 % 0 m²/s² 0 0 25.36 3
03:00 0 J/kg 15.1 K 0 % 0 % 0 % 0 m²/s² 0 0 24.46 3
04:00 12 J/kg 14.8 K 0 % 0 % 0 % 0 m²/s² 0 0 23.68 3
05:00 0 J/kg 14.9 K 0 % 0 % 0 % 0 m²/s² 0 0 21.89 3
06:00 0 J/kg 15.1 K 0 % 0 % 0 % 0 m²/s² 0 0 21.61 3
07:00 0 J/kg 15.2 K 0 % 0 % 0 % 0 m²/s² 0 0 20.48 3
08:00 0 J/kg 14.9 K 0 % 0 % 0 % 0 m²/s² 0 0 18.56
09:00 0 J/kg 15.2 K 0 % 0 % 0 % 0 m²/s² 0 0 19.04
10:00 0 J/kg 14.0 K 0 % 0 % 0 % 0 m²/s² 0 0 17.9
11:00 21 J/kg 13.0 K 0 % 0 % 0 % 0 m²/s² 0 0 16.78
Temp Baro Wind Neerslag
  EWN Forecast EWN WRFDA DWD ICON FMI HIRLAM MET Norway GFS
 07:26     17:04    Daglengte: 9:38 Vandaag
13:00 15.1° 1018.6 hPa 5.2 m/s 0.0 mm 15.8° 1016.9 hPa 5.6 m/s 0.0 mm 15.9° 1018.7 hPa 4.3 m/s -2.0 mm 15.0° 1018.9 hPa 7.2 m/s 0.0 mm 15.0° 1018.9 hPa 4.3 m/s 16.3° 1018.5 hPa 4.7 m/s
16:00 15.3° 1015.4 hPa 5.0 m/s 0.0 mm 15.7° 1014.2 hPa 5.2 m/s 0.0 mm 15.0° 1016.4 hPa 3.7 m/s 0.0 mm 15.7° 1015.5 hPa 6.9 m/s 0.0 mm 15.5° 1015.6 hPa 4.5 m/s 15.6° 1016.0 hPa 4.3 m/s
19:00 14.4° 1014.1 hPa 7.0 m/s 0.0 mm 14.8° 1012.9 hPa 7.0 m/s 0.0 mm 13.6° 1014.7 hPa 4.4 m/s 0.0 mm 15.3° 1014.4 hPa 8.1 m/s 0.0 mm 14.6° 1014.2 hPa 7.0 m/s 14.2° 1014.8 hPa 5.6 m/s
22:00 13.8° 1014.6 hPa 6.0 m/s 1.1 mm 14.0° 1013.3 hPa 5.3 m/s 0.4 mm 13.4° 1015.5 hPa 4.0 m/s 0.9 mm 15.2° 1014.6 hPa 7.1 m/s 0.0 mm 13.8° 1014.3 hPa 6.1 m/s 13.9° 1014.7 hPa 4.7 m/s
 07:28     17:03    Daglengte: 9:35 Morgen
01:00 13.7° 1014.9 hPa 4.3 m/s 0.0 mm 13.5° 1012.9 hPa 4.3 m/s 0.8 mm 13.3° 1015.6 hPa 2.0 m/s 0.1 mm 15.0° 1014.5 hPa 5.0 m/s 0.0 mm 13.9° 1014.9 hPa 4.3 m/s 13.5° 1015.1 hPa 3.9 m/s
04:00 12.6° 1014.7 hPa 3.7 m/s 0.0 mm 12.5° 1012.6 hPa 3.7 m/s 0.8 mm 12.6° 1015.8 hPa 1.5 m/s 0.0 mm 14.2° 1013.6 hPa 5.1 m/s 0.0 mm 12.5° 1014.7 hPa 3.6 m/s 12.5° 1014.4 hPa 3.8 m/s
07:00 11.8° 1013.5 hPa 3.3 m/s 0.7 mm 11.8° 1012.4 hPa 3.8 m/s 0.9 mm 11.9° 1014.4 hPa 1.3 m/s 0.1 mm 14.2° 1012.3 hPa 3.8 m/s 0.0 mm 11.5° 1013.4 hPa 3.5 m/s 11.3° 1013.8 hPa 4.5 m/s
10:00 13.6° 1011.7 hPa 5.5 m/s 0.0 mm 12.6° 1011.2 hPa 6.1 m/s 1.4 mm 13.2° 1013.9 hPa 2.4 m/s 0.0 mm 15.8° 1010.7 hPa 8.9 m/s 0.0 mm 13.9° 1011.4 hPa 5.4 m/s 11.3° 1011.8 hPa 4.8 m/s
13:00 15.0° 1009.6 hPa 7.4 m/s 1.1 mm 13.5° 1007.5 hPa 5.7 m/s 3.6 mm 14.4° 1011.7 hPa 3.9 m/s 0.2 mm 16.3° 1009.4 hPa 9.0 m/s 0.0 mm 16.1° 1009.5 hPa 7.9 m/s 13.8° 1008.1 hPa 5.6 m/s
16:00 16.2° 1008.9 hPa 7.9 m/s 1.7 mm 16.2° 1006.9 hPa 8.6 m/s 5.8 mm 15.1° 1009.5 hPa 4.9 m/s 0.8 mm 16.9° 1008.9 hPa 9.5 m/s 0.0 mm 16.7° 1009.0 hPa 8.1 m/s 16.5° 1006.9 hPa 8.1 m/s
19:00 16.0° 1009.1 hPa 7.6 m/s 1.3 mm 14.8° 1008.4 hPa 6.3 m/s 6.0 mm 15.6° 1009.9 hPa 4.5 m/s 1.1 mm 16.6° 1009.0 hPa 9.1 m/s 0.0 mm 16.7° 1009.1 hPa 8.0 m/s 15.3° 1009.8 hPa 7.6 m/s
22:00 16.1° 1009.0 hPa 7.1 m/s 2.2 mm 12.8° 1010.2 hPa 4.7 m/s 6.0 mm 16.2° 1008.9 hPa 5.1 m/s 2.2 mm 16.7° 1008.5 hPa 9.2 m/s 0.0 mm 16.6° 1009.5 hPa 7.4 m/s 13.2° 1011.5 hPa 5.5 m/s
 07:29     17:01    Daglengte: 9:32 Maandag 02 Nov
01:00 16.5° 1008.1 hPa 7.4 m/s 1.7 mm 13.8° 1009.7 hPa 4.3 m/s 6.1 mm 16.5° 1008.3 hPa 4.9 m/s 0.7 mm 17.5° 1007.7 hPa 10.4 m/s 0.0 mm 16.8° 1008.1 hPa 7.6 m/s 14.9° 1010.6 hPa 5.0 m/s
04:00 16.8° 1007.4 hPa 7.4 m/s 0.6 mm 15.9° 1008.8 hPa 6.9 m/s 6.7 mm 16.9° 1007.9 hPa 4.8 m/s 0.3 mm 17.0° 1007.4 hPa 7.7 m/s 16.1° 1009.3 hPa 5.3 m/s
07:00 16.9° 1007.6 hPa 8.4 m/s 1.4 mm 16.5° 1008.1 hPa 6.9 m/s 6.8 mm 17.2° 1008.7 hPa 5.5 m/s 0.5 mm 17.0° 1007.4 hPa 9.0 m/s 16.4° 1009.1 hPa 4.6 m/s
10:00 17.5° 1008.0 hPa 8.5 m/s 0.0 mm 17.3° 1007.6 hPa 9.6 m/s 6.9 mm 17.7° 1009.9 hPa 5.5 m/s 0.0 mm 17.8° 1007.8 hPa 8.8 m/s 17.0° 1009.0 hPa 7.2 m/s
13:00 18.5° 1007.7 hPa 8.7 m/s 0.0 mm 18.3° 1006.7 hPa 9.2 m/s 6.9 mm 18.5° 1009.8 hPa 5.3 m/s 0.0 mm 19.5° 1007.4 hPa 9.4 m/s 18.4° 1008.6 hPa 8.2 m/s
16:00 18.7° 1008.3 hPa 8.3 m/s 0.0 mm 19.4° 1006.3 hPa 8.0 m/s 6.9 mm 18.9° 1009.1 hPa 4.7 m/s 0.0 mm 18.9° 1008.3 hPa 9.7 m/s 18.9° 1007.6 hPa 7.2 m/s
19:00 14.4° 1012.0 hPa 7.2 m/s 0.0 mm 14.9° 1008.9 hPa 8.8 m/s 7.7 mm 18.1° 1008.7 hPa 4.8 m/s 0.0 mm 14.0° 1013.4 hPa 7.4 m/s 15.6° 1009.8 hPa 7.7 m/s
22:00 12.1° 1015.4 hPa 6.4 m/s 1.7 mm 12.1° 1011.7 hPa 7.5 m/s 9.8 mm 11.4° 1015.5 hPa 3.8 m/s 2.9 mm 12.5° 1016.2 hPa 6.5 m/s 13.0° 1013.5 hPa 7.2 m/s
 07:31     16:59    Daglengte: 9:28 Dinsdag 03 Nov
01:00 10.5° 1017.3 hPa 6.2 m/s 0.0 mm 10.5° 1013.8 hPa 8.3 m/s 9.8 mm 10.7° 1017.3 hPa 2.5 m/s 0.7 mm 10.5° 1018.3 hPa 6.3 m/s 10.9° 1016.1 hPa 7.0 m/s
04:00 9.6° 1019.1 hPa 5.3 m/s 0.0 mm 9.5° 1015.6 hPa 7.0 m/s 9.8 mm 10.8° 1019.1 hPa 3.0 m/s 0.0 mm 9.3° 1019.8 hPa 5.5 m/s 9.9° 1017.9 hPa 7.0 m/s
07:00 8.4° 1020.9 hPa 4.6 m/s 0.0 mm 8.3° 1017.3 hPa 8.3 m/s 9.9 mm 9.7° 1021.2 hPa 1.8 m/s 0.0 mm 8.2° 1021.4 hPa 4.7 m/s 9.1° 1020.3 hPa 6.7 m/s
10:00 10.2° 1021.4 hPa 5.8 m/s 9.9 mm 9.2° 1019.7 hPa 8.4 m/s 9.9 mm 10.3° 1021.7 hPa 5.4 m/s 9.9° 1022.4 hPa 7.2 m/s
13:00 12.3° 1021.8 hPa 6.5 m/s 9.9 mm 11.1° 1020.9 hPa 8.7 m/s 9.9 mm 12.5° 1022.0 hPa 6.1 m/s 10.6° 1023.3 hPa 6.8 m/s
16:00 10.0° 1023.2 hPa 5.6 m/s 9.7 mm 10.0° 1023.1 hPa 5.6 m/s 10.2° 1024.1 hPa 6.3 m/s 9.7 mm
19:00 8.7° 1023.8 hPa 5.3 m/s 9.8 mm 8.7° 1023.7 hPa 5.3 m/s 8.6° 1025.4 hPa 5.8 m/s 9.8 mm
22:00 7.5° 1024.9 hPa 5.5 m/s 9.8 mm 7.4° 1024.8 hPa 5.3 m/s 8.4° 1026.1 hPa 7.4 m/s 9.8 mm
 07:33     16:57    Daglengte: 9:24 Woensdag 04 Nov
01:00 6.2° 1025.9 hPa 5.3 m/s 9.8 mm 6.1° 1025.8 hPa 5.3 m/s 7.2° 1026.8 hPa 5.4 m/s 9.8 mm
04:00 5.6° 1026.5 hPa 4.8 m/s 9.8 mm 5.5° 1026.5 hPa 4.8 m/s 6.2° 1026.8 hPa 3.9 m/s 9.8 mm
07:00 5.0° 1027.2 hPa 4.3 m/s 9.8 mm 5.0° 1027.2 hPa 4.4 m/s 5.4° 1027.4 hPa 2.9 m/s 9.8 mm
10:00 7.2° 1028.7 hPa 4.0 m/s 9.8 mm 7.2° 1028.8 hPa 4.1 m/s 7.2° 1028.1 hPa 3.2 m/s 9.8 mm
13:00 9.4° 1030.2 hPa 3.6 m/s 9.8 mm 9.3° 1030.4 hPa 3.7 m/s 9.9° 1028.2 hPa 2.6 m/s 9.8 mm
16:00 7.9° 1031.5 hPa 2.9 m/s 9.8 mm 7.8° 1031.8 hPa 3.0 m/s 9.8° 1028.0 hPa 1.3 m/s 9.8 mm
19:00 6.3° 1032.9 hPa 2.2 m/s 9.8 mm 6.2° 1033.2 hPa 2.3 m/s 7.7° 1030.0 hPa 1.0 m/s 9.8 mm
22:00 5.0° 1034.2 hPa 2.0 m/s 9.8 mm 4.8° 1034.5 hPa 2.1 m/s 6.8° 1031.5 hPa 1.1 m/s 9.8 mm
 07:35     16:56    Daglengte: 9:21 Donderdag 05 Nov
01:00 3.6° 1035.4 hPa 1.8 m/s 9.8 mm 3.4° 1035.7 hPa 1.9 m/s 6.1° 1032.5 hPa 1.0 m/s 9.8 mm
04:00 3.3° 1036.3 hPa 2.1 m/s 9.8 mm 3.1° 1036.5 hPa 2.1 m/s 5.6° 1033.6 hPa 1.0 m/s 9.8 mm
07:00 3.0° 1037.1 hPa 2.3 m/s 9.8 mm 2.8° 1037.3 hPa 2.4 m/s 5.0° 1034.9 hPa 1.0 m/s 9.8 mm
10:00 6.3° 1037.6 hPa 2.8 m/s 9.8 mm 6.2° 1037.8 hPa 3.0 m/s 7.4° 1035.7 hPa 1.1 m/s 9.8 mm
13:00 9.7° 1038.0 hPa 3.4 m/s 9.8 mm 9.7° 1038.2 hPa 3.6 m/s 10.2° 1036.4 hPa 1.6 m/s 9.8 mm
16:00 8.8° 1037.7 hPa 3.2 m/s 9.8 mm 8.8° 1037.8 hPa 3.4 m/s 9.8° 1036.3 hPa 1.3 m/s 9.8 mm
19:00 7.8° 1037.4 hPa 2.9 m/s 9.8 mm 7.8° 1037.4 hPa 3.1 m/s 7.7° 1037.5 hPa 1.2 m/s 9.8 mm
22:00 6.6° 1037.5 hPa 2.9 m/s 9.8 mm 6.7° 1037.4 hPa 3.1 m/s 6.6° 1038.4 hPa 1.2 m/s 9.8 mm
 07:36     16:54    Daglengte: 9:18 Vrijdag 06 Nov
01:00 5.5° 1037.5 hPa 2.9 m/s 9.8 mm 5.5° 1037.4 hPa 3.1 m/s 5.9° 1038.4 hPa 1.2 m/s 9.8 mm
04:00 5.4° 1037.1 hPa 2.6 m/s 9.8 mm 5.4° 1037.1 hPa 2.8 m/s 5.2° 1037.8 hPa 1.4 m/s 9.8 mm
07:00 5.3° 1036.8 hPa 2.3 m/s 9.8 mm 5.3° 1036.7 hPa 2.4 m/s 4.7° 1037.5 hPa 1.5 m/s 9.8 mm
10:00 8.0° 1036.5 hPa 2.1 m/s 9.8 mm 8.1° 1036.5 hPa 2.1 m/s 7.1° 1036.5 hPa 1.8 m/s 9.8 mm
13:00 10.8° 1036.1 hPa 1.8 m/s 9.8 mm 10.8° 1036.2 hPa 1.8 m/s 10.4° 1035.2 hPa 2.2 m/s 9.8 mm
16:00 9.7° 1035.4 hPa 1.4 m/s 9.8 mm 9.7° 1035.6 hPa 1.2 m/s 10.2° 1033.3 hPa 2.8 m/s 9.8 mm
19:00 8.5° 1034.7 hPa 0.9 m/s 9.8 mm 8.6° 1034.9 hPa 0.7 m/s 7.9° 1032.7 hPa 2.8 m/s 9.8 mm
22:00 7.3° 1033.9 hPa 1.3 m/s 9.8 mm 7.3° 1034.1 hPa 1.2 m/s 6.6° 1031.8 hPa 2.1 m/s 9.8 mm
 07:38     16:52    Daglengte: 9:14 Zaterdag 07 Nov
01:00 6.1° 1033.0 hPa 1.8 m/s 9.8 mm 6.1° 1033.2 hPa 1.8 m/s 5.8° 1030.9 hPa 1.9 m/s 9.8 mm
04:00 5.7° 1032.0 hPa 1.8 m/s 9.8 mm 5.7° 1032.2 hPa 1.7 m/s 5.3° 1029.3 hPa 2.3 m/s 9.8 mm
07:00 5.3° 1030.9 hPa 1.7 m/s 9.8 mm 5.3° 1031.2 hPa 1.6 m/s 4.9° 1027.9 hPa 2.4 m/s 9.8 mm
10:00 9.3° 1029.9 hPa 1.7 m/s 9.8 mm 9.6° 1030.2 hPa 1.6 m/s 6.9° 1026.5 hPa 3.0 m/s 9.8 mm
13:00 13.4° 1028.8 hPa 1.6 m/s 9.8 mm 13.8° 1029.2 hPa 1.5 m/s 9.0° 1024.3 hPa 2.8 m/s 9.8 mm
19:00 8.4° 1026.4 hPa 2.3 m/s 9.8 mm 8.6° 1026.8 hPa 2.3 m/s 6.6° 1022.0 hPa 2.5 m/s 9.8 mm
 07:40     16:51    Daglengte: 9:11 Zondag 08 Nov
01:00 8.2° 1025.2 hPa 2.4 m/s 9.8 mm 8.5° 1025.7 hPa 2.4 m/s 4.4° 1020.0 hPa 2.3 m/s 9.8 mm
07:00 6.7° 1023.4 hPa 2.9 m/s 9.8 mm 7.0° 1023.9 hPa 3.0 m/s 3.1° 1018.1 hPa 2.4 m/s 9.8 mm
13:00 13.3° 1023.0 hPa 3.2 m/s 9.8 mm 13.9° 1023.7 hPa 3.2 m/s 7.1° 1015.9 hPa 3.1 m/s 9.8 mm
19:00 9.5° 1022.7 hPa 2.7 m/s 9.8 mm 9.8° 1023.4 hPa 2.7 m/s 5.7° 1015.5 hPa 3.1 m/s 9.8 mm
 07:42     16:49    Daglengte: 9:07 Maandag 09 Nov
01:00 9.8° 1023.5 hPa 2.9 m/s 9.8 mm 10.4° 1024.2 hPa 2.9 m/s 3.6° 1016.0 hPa 2.6 m/s 9.8 mm
07:00 10.7° 1023.2 hPa 2.8 m/s 9.8 mm 11.4° 1023.8 hPa 2.7 m/s 3.3° 1016.3 hPa 3.5 m/s 9.8 mm
13:00 13.9° 1023.5 hPa 3.3 m/s 9.8 mm 14.5° 1024.1 hPa 3.2 m/s 7.6° 1017.1 hPa 3.8 m/s 9.8 mm
19:00 11.6° 1022.3 hPa 2.2 m/s 9.8 mm 12.1° 1022.6 hPa 2.1 m/s 6.2° 1018.9 hPa 3.4 m/s 9.8 mm
 07:43     16:48    Daglengte: 9:05 Dinsdag 10 Nov
01:00 4.9° 1021.3 hPa 2.2 m/s 9.8 mm 4.9° 1021.3 hPa 2.2 m/s 9.8 mm
07:00 5.4° 1019.3 hPa 1.2 m/s 0.0 mm
13:00 10.8° 1019.4 hPa 1.0 m/s 0.1 mm
19:00 7.2° 1020.2 hPa 1.4 m/s 0.2 mm
 07:45     16:46    Daglengte: 9:01 Woensdag 11 Nov
01:00 5.7° 1021.3 hPa 1.3 m/s 0.0 mm
07:00 4.9° 1021.5 hPa 1.2 m/s 0.3 mm
13:00 10.1° 1022.0 hPa 1.1 m/s 0.1 mm
19:00 6.4° 1022.7 hPa 1.5 m/s 0.1 mm
 07:47     16:45    Daglengte: 8:58 Donderdag 12 Nov
01:00 5.1° 1023.6 hPa 1.3 m/s 0.1 mm
07:00 4.7° 1023.8 hPa 1.6 m/s 0.0 mm
13:00 9.5° 1023.7 hPa 1.8 m/s 0.1 mm
19:00 6.1° 1024.0 hPa 1.9 m/s 0.0 mm
 07:49     16:43    Daglengte: 8:54 Vrijdag 13 Nov
01:00 5.0° 1024.3 hPa 1.6 m/s 0.0 mm
07:00 4.4° 1023.9 hPa 1.5 m/s 0.1 mm
13:00 9.2° 1023.6 hPa 1.5 m/s 0.5 mm
19:00 5.8° 1023.9 hPa 1.5 m/s 0.2 mm
 07:50     16:42    Daglengte: 8:52 Zaterdag 14 Nov
01:00 4.4° 1024.4 hPa 1.5 m/s 0.1 mm
07:00 3.5° 1024.0 hPa 1.2 m/s 0.2 mm
13:00 8.5° 1023.5 hPa 1.3 m/s 0.1 mm
19:00 4.9° 1022.8 hPa 1.4 m/s 0.1 mm
 07:52     16:41    Daglengte: 8:49 Zondag 15 Nov
01:00 3.9° 1022.1 hPa 1.3 m/s 0.3 mm
07:00 3.4° 1020.8 hPa 1.2 m/s 0.1 mm
FMI Hirlam - 7.5 km EWN WRFDA - 12 km DWD ICON - 7 km GFS - 25 km Basiskaart






























































Updatetijd (Europe/Amsterdam) Resolutie Lengte Stap
FMI Hirlam 06:00, 12:00, 18:00, 00:00 7.5 km 49h 1h
EWN WRFDA 09:15, 15:15, 21:15, 03:15 12 km 73h 1h
DWD ICON 10:45, 16:45, 22:45, 04:45 7 km 75h 1h
GFS 07:00, 13:00, 19:00, 01:00 25 km 237h 3h
30+ mm
25-30 mm
20-25 mm
15-20 mm
10-15 mm
6-10 mm
4-6 mm
2-4 mm
1-2 mm
0.5-1 mm
0.2-0.5 mm
0.1-0.2 mm
30+ mm
25-30 mm
20-25 mm
15-20 mm
10-15 mm
6-10 mm
4-6 mm
2-4 mm
1-2 mm
0.5-1 mm
0.2-0.5 mm
0.1-0.2 mm
Sneeuwval
Natte sneeuw
Hagel
Vorst
30+ mm
25-30 mm
20-25 mm
15-20 mm
10-15 mm
6-10 mm
4-6 mm
2-4 mm
1-2 mm
0.5-1 mm
0.2-0.5 mm
0.1-0.2 mm
Sneeuwval
Natte sneeuw
Hagel
Vorst
Onweer
50 mm
40 mm
30 mm
26 mm
22 mm
18 mm
14 mm
10 mm
9 mm
8 mm
7 mm
6 mm
5 mm
4.5 mm
4 mm
3.5 mm
3 mm
2.5 mm
2 mm
1.5 mm
1 mm
0.8 mm
0.6 mm
0.4 mm
0.2 mm
0.05 mm
35°
30°
25°
20°
15°
10°
-5°
-10°
-15°
-20°
-25°
-30°
-35°
33> m/s
29 m/s
25 m/s
21 m/s
17 m/s
14 m/s
11 m/s
8 m/s
5 m/s
3 m/s
0 m/s
2600 J/kg
2400 J/kg
2200 J/kg
2000 J/kg
1800 J/kg
1600 J/kg
1400 J/kg
1200 J/kg
1000 J/kg
800 J/kg
600 J/kg
400 J/kg
200 J/kg
70 dBZ
65 dBZ
60 dBZ
55 dBZ
50 dBZ
45 dBZ
40 dBZ
35 dBZ
30 dBZ
25 dBZ
20 dBZ
15 dBZ
10 dBZ
5 dBZ
-1 K
-2 K
-3 K
-4 K
-5 K
-6 K
-7 K
-8 K
-9 K
950 m²/s²
900 m²/s²
850 m²/s²
800 m²/s²
750 m²/s²
700 m²/s²
650 m²/s²
600 m²/s²
550 m²/s²
500 m²/s²
450 m²/s²
400 m²/s²
350 m²/s²
300 m²/s²
250 m²/s²
200 m²/s²
150 m²/s²
100 m²/s²
46 m/s
44 m/s
42 m/s
40 m/s
38 m/s
36 m/s
34 m/s
32 m/s
30 m/s
28 m/s
26 m/s
24 m/s
22 m/s
20 m/s
16 m/s
12 m/s
8 m/s
4 m/s
30 m/s
28 m/s
26 m/s
24 m/s
22 m/s
20 m/s
18 m/s
16 m/s
14 m/s
12 m/s
10 m/s
8 m/s
6 m/s
4 m/s
2 m/s
3.0
2.8
2.6
2.4
2.2
2.0
1.8
1.6
1.4
1.2
1.0
0.8
0.6
0.4
0.2
15
14
13
12
11
10
9
8
7
6
5
4
3
2
1
90%
80%
70%
60%
50%
40%
30%
20%
10%
42
40
38
36
34
32
30
28
26
24
22
20
18
16
14
12
90+ cm
80-90 cm
70-80 cm
60-70 cm
50-60 cm
40-50 cm
30-40 cm
20-30 cm
10-20 cm
1-10 cm
Sneeuwval
Natte sneeuw
Regen
>120 mm
115 mm
110 mm
105 mm
100 mm
95 mm
90 mm
85 mm
80 mm
75 mm
70 mm
65 mm
60 mm
55 mm
50 mm
45 mm
45 mm
40 mm
35 mm
30 mm
25 mm
20 mm
15 mm
10 mm
5 mm
0.1 mm
960 hPa
880 hPa
800 hPa
720 hPa
640 hPa
560 hPa
584 gpdm
568 gpdm
552 gpdm
536 gpdm
520 gpdm
504 gpdm
488 gpdm
Extreem zwaar Noodweer Kans op onweer
15% 15% 5% 50% 15%

Dag




Kaart






35°
30°
25°
20°
15°
10°
-5°
-10°
-15°
-20°
-25°
-30°
-35°
33> m/s
29 m/s
25 m/s
21 m/s
17 m/s
14 m/s
11 m/s
8 m/s
5 m/s
3 m/s
0 m/s
Extreem zwaar Noodweer Kans op onweer
15% 15% 5% 50% 15%
>120 mm
115 mm
110 mm
105 mm
100 mm
95 mm
90 mm
85 mm
80 mm
75 mm
70 mm
65 mm
60 mm
55 mm
50 mm
45 mm
45 mm
40 mm
35 mm
30 mm
25 mm
20 mm
15 mm
10 mm
5 mm
0.1 mm
Onweer risico kaarten - De groene en gele kleur geeft de kans op onweer aan binnen 40 km van een punt. Oranje, rood en violet hebben hetzelfde niveau zoals je het ziet op estofex.org waaronder ook de kans op hagel en supercells.

dBZ - dBZ staat voor decibel ten opzichte van Z.

Cape - Convective available potential energy (CAPE), is de totale hoeveelheid energie die een luchtpakketje nodig heeft om zover mogelijk te stijgen in de atmosfeer.

K Index - K-Index wordt berekend door de Vertical Totals (VT) en het verschil tussen de 850 hPa temperatuur en de 700 hPa dauwpuntsdepressie (Tdd 700) bij elkaar op te tellen.

TT Index - Convectie index wordt gebruikt voor het voorspellen van zware buien of onweer.

WRF - The Weather Research and Forecasting (WRF) is een volgende generatie mesoscale numeriek weersvoorspelling systeem ontworpen om zowel de operationele planning als het atmosferisch onderzoek te dienen. WRF is a cooperatie tussen het National Center for Atmospheric Research (NCAR), National Centers for Environmental Prediction (NCEP), Forecast Systems Laboratory (FSL), Air Force Weather Agency (AFWA), Naval Research Laboratory, University of Oklahoma, en de Federal Aviation Administration (FAA). Deze software draait op onze server.

WRFDA - Een meer geavanceerde versie van WRF

Arome - Het 2.5 km Arome model. Verzorgd door het Noors Meteorologisch Instituut.

MET Norway - De proff-default 4km meteorological data is een beste keus selectie van meteorologische modellen gebruikt door met.no die zijn geïnterpoleerd tot een gemeenschappelijke dataset. Verzorgd door het Noorse Meteorologisch Instituut.

SMHI - Het Hirlam model verzorgd door het Zweeds meteorologisch instituut.

FMI - Het Hirlam model verzorgd door het Fins meteorologisch instituut. Dekking alleen Finland.

GFS - Het Global Forecast Systeem (GFS) is een wereldwijd numerieke weersvoorspelling computermodel, gerund door NOAA.

GEM-GDPS - Het GEM-GDPS is a wereldwijd numeriek weersvoorspelling computermodel verzorgd door het Canadees Meteorologisch Centrum.

Credits/Info: Dank aan Stefan Gofferje van sääkeskus.fi voor enkele formules van GrADS. Info: Wikipedia.

Betrouwbaarheid van de verwachting

NB! 2015-03-29: Rebuilding the accuracy-test!

EWNACC
Day 1 Good forecasts

Dag 1 Tmax

Dag 2 Tmax

Geladen verwachtingen TOP 50

Totaal geladen verwachtingen:
Plaats Latitude Longitude Verwachtingen Plaats Latitude Longitude Verwachtingen